This demonstration page uses our WeatherBlox Daily Observations layout. Learn more.

Left ArrowRight Arrow

38.88101, -77.10428

Hourly Observations for May 21, 2016

Temp ( °F °C ) Dew Point ( °F °C ) Humidity (%) Winds ( mph kmh ) Pressure ( in mb ) Visibility ( mi km ) Precip ( " mm )
12:52 am 00:52 Cloudy 63 17.2 51 10.6 65 65 S 6 9 30.14 1021 10 16 N/A
1:52 am 01:52 Cloudy 62 16.7 51 10.6 67 67 SSE 7 11 30.13 1020 10 16 N/A
2:52 am 02:52 Cloudy 62 16.7 50 10 65 65 SSE 6 9 30.11 1020 10 16 N/A
3:52 am 03:52 Mostly Cloudy 62 16.7 50 10 65 65 E 5 7 30.09 1019 10 16 N/A
4:52 am 04:52 Cloudy with Light Rain 62 16.7 50 10 65 65 NE 5 7 30.07 1018 10 16 N/A
5:52 am 05:52 Cloudy with Light Rain 60 15.6 52 11.1 75 75 N 7 11 30.09 1019 10 16 0.01 0.25
6:18 am 06:18 Cloudy with Light Rain 57 14 52 11 82 82 ENE 7 11 30.09 1019 7 11 N/A
6:52 am 06:52 Cloudy with Light Rain 58 14.4 52 11.1 81 81 ENE 7 11 30.07 1018 7 11 0.08 2.03
7:08 am 07:08 Cloudy with Rain 57 14 52 11 82 82 NNE 7 11 30.09 1019 5 8 N/A
7:29 am 07:29 Cloudy with Rain 57 13.9 52 11.1 83 83 NE 10 17 30.09 1019 4 6 0.10 2.54
7:52 am 07:52 Cloudy with Rain 56 13.3 52 11.1 87 87 ENE 10 17 30.09 1019 5 8 0.16 4.06
8:18 am 08:18 Cloudy with Rain 55 13 52 11 88 88 NE 5 7 30.09 1019 4 6 N/A
8:37 am 08:37 Cloudy with Heavy Rain 55 12.8 51 10.6 87 87 NE 10 17 30.09 1019 3 4 0.20 5.08
8:52 am 08:52 Cloudy with Rain 55 12.8 52 11.1 90 90 ENE 12 19 30.07 1018 3 5 0.26 6.60
9:34 am 09:34 Cloudy with Light Rain 55 13 52 11 88 88 ENE 14 22 30.09 1019 10 16 N/A
9:52 am 09:52 Cloudy 56 13.3 52 11.1 87 87 ENE 10 17 30.07 1018 10 16 0.07 1.78
9:59 am 09:59 Cloudy with Light Rain 56 13.3 52 11.1 87 87 ENE 14 22 30.06 1018 10 16 N/A
10:52 am 10:52 Cloudy 57 13.9 52 11.1 83 83 NE 16 26 30.04 1017 10 16 N/A
11:52 am 11:52 Cloudy 57 13.9 51 10.6 81 81 ENE 14 22 30.03 1017 10 16 N/A
12:52 pm 12:52 Cloudy 57 13.9 53 11.7 87 87 NE 17 28 30.00 1016 10 16 N/A
1:03 pm 13:03 Cloudy with Light Rain 57 14 54 12 88 88 NE 20 31 30.00 1016 7 11 N/A
1:52 pm 13:52 Cloudy 58 14.4 54 12.2 87 87 NE 14 22 29.97 1015 10 16 N/A
2:52 pm 14:52 Cloudy with Light Rain 58 14.4 55 12.8 90 90 N 10 17 29.96 1015 7 11 N/A
3:08 pm 15:08 Cloudy with Light Rain 57 14 55 13 94 94 N 8 13 29.97 1015 4 6 N/A
3:44 pm 15:44 Cloudy with Light Rain 57 14 55 13 94 94 NNE 13 20 29.94 1014 4 6 N/A
3:48 pm 15:48 Cloudy with Light Rain 57 14 55 13 94 94 NNE 13 20 29.94 1014 4 6 N/A
3:52 pm 15:52 Cloudy with Light Rain 58 14.4 55 12.8 90 90 NNE 13 20 29.93 1014 4 6 0.01 0.25
3:54 pm 15:54 Cloudy with Light Rain 57 14 55 13 94 94 NNE 12 19 29.94 1014 4 6 N/A
3:56 pm 15:56 Cloudy with Light Rain 57 14 55 13 94 94 N 13 20 29.94 1014 3 5 N/A
4:07 pm 16:07 Cloudy with Light Rain 58 14.4 55 12.8 90 90 N 14 22 29.94 1014 4 6 N/A
4:13 pm 16:13 Cloudy with Light Rain 58 14.4 55 12.8 90 90 N 13 20 29.91 1013 4 6 N/A
4:34 pm 16:34 Cloudy with Mist and Fog 57 14 55 13 94 94 N 13 20 29.91 1013 6 10 N/A
4:37 pm 16:37 Cloudy with Drizzle 58 14.4 55 12.8 90 90 N 14 22 29.91 1013 5 8 N/A
4:42 pm 16:42 Cloudy with Light Rain 57 14 55 13 94 94 N 12 19 29.91 1013 3 5 N/A
4:44 pm 16:44 Cloudy with Light Rain 57 14 55 13 94 94 N 13 20 29.91 1013 3 4 N/A
4:52 pm 16:52 Cloudy with Light Rain 58 14.4 55 12.8 90 90 N 13 20 29.91 1013 4 6 N/A
5:10 pm 17:10 Cloudy with Light Rain 57 14 55 13 94 94 N 10 17 29.91 1013 3 4 N/A
5:31 pm 17:31 Cloudy with Light Rain 57 13.9 55 12.8 93 93 N 10 17 29.91 1013 2 3 0.02 0.51
5:44 pm 17:44 Cloudy with Light Rain 57 14 55 13 94 94 N 10 17 29.91 1013 3 5 N/A
5:52 pm 17:52 Cloudy with Light Rain 57 13.9 55 12.8 93 93 N 12 19 29.91 1013 3 5 0.03 0.76
6:18 pm 18:18 Cloudy with Light Rain 57 14 55 13 94 94 N 9 15 29.91 1013 4 6 N/A
6:52 pm 18:52 Cloudy with Light Rain 57 13.9 55 12.8 93 93 N 12 19 29.90 1013 5 8 N/A
7:52 pm 19:52 Cloudy 56 13.3 54 12.2 93 93 NNW 15 24 29.90 1012 7 11 0.01 0.25
8:47 pm 20:47 Cloudy 55 13 54 12 94 94 N 12 19 29.91 1013 8 13 N/A
8:52 pm 20:52 Cloudy 55 12.8 53 11.7 93 93 N 12 19 29.89 1012 8 13 N/A
9:52 pm 21:52 Cloudy 55 12.8 52 11.1 90 90 NNE 13 20 29.89 1012 10 16 N/A
10:52 pm 22:52 Cloudy 55 12.8 52 11.1 90 90 N 9 15 29.89 1012 10 16 N/A
11:52 pm 23:52 Cloudy with Drizzle 55 12.8 53 11.7 93 93 N 8 13 29.89 1012 6 10 N/A

Powered by AerisWeather